Regional Weather Roundup
Issued by NWS

Home | Current Version | Previous Version | Graphics & Text | Print | Product List | Glossary Off
Versions: 1 2 3 4 5 6 7 8 9 10 11 12 13 14 15 16 17 18 19 20 21 22 23 24 25 26 27 28 29 30 31 32 33 34 35 36 37 38 39 40 41 42 43 44 45 46 47 48 49 50

000
ASUS43 KTOP 191808
RWRKS

WEATHER ROUNDUP FOR KANSAS
NATIONAL WEATHER SERVICE GOODLAND KS
100 PM CDT TUE AUG 19 2014

NOTE:  "FAIR" INDICATES FEW OR NO CLOUDS BELOW 12,000 FEET WITH NO
SIGNIFICANT WEATHER AND/OR OBSTRUCTIONS TO VISIBILITY.

KSZ001>006-013>018-027>032-041>047-191900-
NORTHWEST KANSAS

CITY           SKY/WX    TMP DP  RH WIND       PRES   REMARKS
GOODLAND       PTSUNNY   85  57  38 S7        29.90F
6HR MIN TEMP:  62; 6HR MAX TEMP:  85;

HAYS           PTSUNNY   91  61  35 S13       29.86F
HILL CITY      MOSUNNY   85  65  51 E8        29.85F
6HR MIN TEMP:  62; 6HR MAX TEMP:  85;

RUSSELL        MOSUNNY   88  60  38 S15G23    29.85F
6HR MIN TEMP:  64; 6HR MAX TEMP:  90;

$$

KSZ061>065-074>080-084>089-191900-
SOUTHWEST KANSAS

CITY           SKY/WX    TMP DP  RH WIND       PRES   REMARKS
DODGE CITY     PTSUNNY   89  63  41 S15       29.88F
6HR MIN TEMP:  69; 6HR MAX TEMP:  89;

ELKHART          N/A     90  55  30 S10         N/A
GARDEN CITY    PTSUNNY   90  59  35 S17       29.87F
6HR MIN TEMP:  64; 6HR MAX TEMP:  90;

GREAT BEND     MOSUNNY   90  63  40 S13       29.86F
LIBERAL        PTSUNNY   90  61  37 S14       29.90F
PRATT          SUNNY     91  59  33 S10G17    29.88F
$$

KSZ066>073-081>083-090>101-191900-
SOUTHEAST KANSAS

CITY           SKY/WX    TMP DP  RH WIND       PRES   REMARKS
CHANUTE        SUNNY     93  65  39 VRB6      29.87S HX  95
6HR MIN TEMP:  74; 6HR MAX TEMP:  93;

COFFEYVILLE    SUNNY     91  69  48 SW10      29.85F HX  96
6HR MIN TEMP:  73; 6HR MAX TEMP:  92; 6HR PCP: TRACE;

HUTCHINSON     MOSUNNY   92  63  38 SE10      29.87F
6HR MIN TEMP:  66; 6HR MAX TEMP:  92;

MEDICINE LODGE   N/A     93  63  36 S8        29.85F
NEWTON         MOSUNNY   90  55  31 SW8       29.90F
PARSONS        SUNNY     93  68  43 SW6       29.87F HX  97
6HR MIN TEMP:  76; 6HR MAX TEMP:  93;

WICHITA INTL   MOSUNNY   91  67  44 S6        29.86F
6HR MIN TEMP:  75; 6HR MAX TEMP:  91;

WICHITA JABRA  MOSUNNY   91  65  41 W12       29.86F
6HR MIN TEMP:  69; 6HR MAX TEMP:  91;

WICHITA MCCONL MOSUNNY   88  67  48 S7        29.87F
WINFIELD       MOSUNNY   91  68  46 SW9       29.88F HX  95
6HR MIN TEMP:  70; 6HR MAX TEMP:  91;

$$

KSZ007>012-019>026-033>040-048>060-102>105-191900-
NORTHEAST KANSAS

CITY           SKY/WX    TMP DP  RH WIND       PRES   REMARKS
CONCORDIA      SUNNY     86  71  60 SE6       29.85S
6HR MIN TEMP:  66; 6HR MAX TEMP:  87;

EMPORIA        SUNNY     90  61  37 MISG      29.86F
6HR MIN TEMP:  66; 6HR MAX TEMP:  90;

LAWRENCE       SUNNY     92  70  48 VRB3      29.83F HX  97
6HR MIN TEMP:  72; 6HR MAX TEMP:  92;

MANHATTAN      SUNNY     90  69  50 CALM      29.83S
6HR MIN TEMP:  66; 6HR MAX TEMP:  90;

MARYSVILLE     SUNNY     88  72  58 NE3       29.83F
OLATHE IND     SUNNY     88  70  55 VRB3      29.85F
6HR MIN TEMP:  72; 6HR MAX TEMP:  89;

OLATHE EXE     SUNNY     86  70  58 VRB3      29.84F
6HR MIN TEMP:  72; 6HR MAX TEMP:  87;

SALINA         SUNNY     90  65  43 SE12      29.85F
6HR MIN TEMP:  67; 6HR MAX TEMP:  90;

TOPEKA BILLARD SUNNY     89  73  59 SE5       29.83S HX  97
6HR MIN TEMP:  73; 6HR MAX TEMP:  91; 6HR PCP:  0.02;

TOPEKA FORBES  SUNNY     90  69  50 CALM      29.84S
6HR MIN TEMP:  71; 6HR MAX TEMP:  91;

$$



USA.gov is the U.S. government's official web portal to all federal, state and local government web resources and services.